Location: Ertinghausen
(51.6624°N, 9.7874°E)
Time: 18:04:04
(UTC+00:00)

Cosmos 2219 Rocket - Pass Details

Date: 23 May 2024
Orbit: 826 x 847 km, 71.0° (Epoch: 23 June)

Event Time Altitude Azimuth Distance (km) Brightness Sun altitude
Rises 01:48:14 0° 329° (NNW) 3,398 5.7 -10.5°
Reaches altitude 10° 01:50:42 10° 332° (NNW) 2,463 5.0 -10.3°
Maximum altitude 01:56:21 75° 58° (ENE) 876 2.5 -9.8°
Drops below altitude 10° 02:02:01 10° 144° (SE) 2,461 4.5 -9.3°
Sets 02:04:28 0° 146° (SE) 3,394 5.2 -9.0°
